[[{"header":{"parameterUnit":"m.s-1","parameterCategory":1,"la1":30.2991,"la2":30.254,"lo1":-89.0895,"lo2":-89.0444,"dy":0.0017,"dx":0.0017,"nx":28,"ny":28,"refTime":"2025-04-14T21:00:00:Z","depth":0,"parameterNumber":2,"parameterNumberName":"U-component_of_WINDS"},"data":[0,0,0,0,0,0,0,0,0,0,0,0,0,0,0,0,0,0,0,0,0,0,0,0,0,0,0,0,0,0,0,0,0,0,0,0,0,0,0,0,0,0,0,0,0,0,0,0,0,0,0,0,0,0,0,0,0,0,1.8925,1.8926,0,1.9031,1.9032,1.9033,1.9055,1.9055,1.9054,1.9053,1.9162,1.9166,1.9169,0,0,0,0,0,0,0,0,0,0,0,0,0,1.8745,1.8748,1.8925,1.8927,1.8928,1.903,1.9032,1.9033,1.9055,1.9054,1.9054,1.9053,1.9161,1.9165,1.917,0,0,0,0,0,0,0,0,0,0,0,0,0,1.8834,1.8749,1.8925,1.8951,1.8955,1.903,1.9032,1.9034,1.9056,1.9054,1.9053,1.9052,1.916,1.9165,1.917,1.9228,0,0,1.9187,1.9189,0,0,0,0,0,0,0,0,1.8829,1.884,1.8946,1.895,1.8954,1.9029,1.9008,1.9099,1.9056,1.9017,1.9053,1.9052,1.9119,1.9128,1.915,1.9233,1.9237,1.9188,1.9191,1.9193,1.9195,0,0,0,0,0,0,0,1.8823,1.8836,1.8967,1.8948,1.8952,1.8958,1.897,1.9026,1.9073,1.9021,1.9022,1.9035,1.9121,1.9145,1.9153,1.9239,1.9187,1.9192,1.9196,1.9198,1.9374,1.9376,0,0,0,0,0,0,1.8812,1.8831,1.8964,1.897,1.8887,1.8962,1.8975,1.9006,1.9073,1.9082,1.9035,1.9035,1.9136,1.9146,1.9157,1.9228,1.9193,1.9198,1.9201,1.9373,1.9375,1.9376,0,0,0,0,0,0,1.8808,1.8823,1.8959,1.8901,1.8919,1.8967,1.9001,1.9008,1.9032,1.9084,1.9093,1.9051,1.9135,1.9149,1.921,1.9232,1.9201,1.9206,1.9371,1.9374,1.9376,1.9372,0,0,0,0,0,0,1.8802,1.8822,1.8843,1.8901,1.8922,1.901,1.9002,1.9011,1.9042,1.9042,1.9101,1.911,1.9136,1.9202,1.9215,1.9239,1.921,1.937,1.9372,1.9375,1.937,1.9373,1.9376,0,0,0,0,0,1.8796,1.8838,1.8844,1.886,1.895,1.9011,1.9023,1.9052,1.9043,1.9066,1.9099,1.9108,1.9228,1.9208,1.9223,1.9249,1.9368,1.9372,1.9375,1.9368,1.9373,1.9376,0,0,0,0,0,0,1.8782,1.8846,1.8854,1.8916,1.8958,1.9015,1.9044,1.9055,1.9101,1.9099,1.9133,1.9146,1.9205,1.9233,1.921,1.9308,1.9298,1.9304,1.9288,1.9292,1.9295,1.9287,1.9215,0,0,0,0,0,1.8787,1.8831,1.8885,1.8935,1.8955,1.8996,1.9024,1.9042,1.9087,1.9105,1.9143,1.9186,1.9234,1.9265,1.9311,1.9374,1.9387,1.94,1.9403,1.9405,1.941,1.9446,1.9452,1.9387,1.9387,1.9387,0,0,1.8796,1.8836,1.8862,1.8933,1.8967,1.9013,1.9011,1.9059,1.9093,1.9113,1.9172,1.9201,1.9252,1.9314,1.9344,1.934,1.9431,1.9409,1.9411,1.9415,1.945,1.9456,1.9461,1.9389,1.9389,1.9388,0,0,1.8836,1.8871,1.8916,1.8951,1.9003,1.9031,1.9041,1.9097,1.9117,1.9177,1.9193,1.9234,1.9315,1.9351,1.938,1.9434,1.9443,1.9448,1.9464,1.9499,1.9504,1.9508,1.9528,1.9534,1.9453,1.9453,1.9453,0,1.8841,1.8909,1.8939,1.8986,1.9017,1.9036,1.9083,1.9115,1.918,1.9201,1.9196,1.9298,1.9334,1.9405,1.9418,1.944,1.9454,1.9441,1.9501,1.9506,1.951,1.9529,1.9536,1.9453,1.9453,1.9453,1.9453,0,1.8913,1.896,1.8991,1.9053,1.9087,1.9134,1.9171,1.9202,1.9217,1.9245,1.9306,1.935,1.9406,1.9424,1.9439,1.9497,1.9493,1.9494,1.9484,1.9516,1.9535,1.9542,1.9453,1.9453,1.9453,1.9453,0,0,1.8947,1.9025,1.9035,1.9064,1.9123,1.9161,1.9209,1.9263,1.9289,1.9333,1.9374,1.9443,1.9444,1.9476,1.9496,1.9526,1.9566,1.9523,1.9525,1.953,1.9632,1.9631,1.9639,1.9573,1.9575,1.9576,1.9628,0,1.8994,1.908,1.9108,1.9179,1.9223,1.9243,1.9285,1.9326,1.9353,1.9395,1.9425,1.9473,1.9471,1.9491,1.9521,1.9555,1.9587,1.9551,1.9612,1.9614,1.9598,1.9649,1.9648,1.9695,1.9635,1.9637,1.9638,0,1.906,1.9106,1.9181,1.9235,1.9255,1.9292,1.9344,1.9384,1.9431,1.9449,1.9485,1.9503,1.9554,1.9541,1.9612,1.9587,1.9614,1.9634,1.9636,1.9643,1.9627,1.9657,1.9711,1.9718,1.9649,1.9648,1.9647,0,1.9078,1.9157,1.9213,1.9237,1.9301,1.9327,1.9355,1.9401,1.9432,1.9478,1.9498,1.9549,1.9577,1.9616,1.9648,1.9635,1.9716,1.9706,1.9733,1.9732,1.9749,1.9747,1.9808,1.9766,1.9766,1.9765,1.9765,0,1.9127,1.9173,1.9221,1.9256,1.9307,1.9339,1.939,1.9419,1.946,1.9501,1.9521,1.9558,1.9597,1.964,1.9665,1.972,1.9733,1.9749,1.9755,1.9747,1.9745,1.9765,1.9762,1.9767,1.9767,1.9767,1.9766,0,1.9155,1.9189,1.9251,1.9307,1.9322,1.9358,1.9406,1.9441,1.9469,1.952,1.9534,1.9578,1.963,1.9665,1.9731,1.9748,1.9808,1.9813,1.9791,1.9794,1.9819,1.9816,1.9895,1.9907,1.9856,1.9857,1.9857,0,1.9184,1.9219,1.9279,1.9308,1.9336,1.9382,1.9413,1.9446,1.9478,1.9535,1.9563,1.9615,1.9659,1.9741,1.978,1.983,1.9837,1.9861,1.9845,1.9836,1.9838,1.9835,1.9839,1.9864,1.9864,1.9864,1.9865,0,1.9232,1.9247,1.9292,1.9343,1.938,1.9422,1.9464,1.9486,1.9526,1.9562,1.9614,1.9649,1.9716,1.9768,1.9823,1.9852,1.9865,1.9869,1.9878,1.9871,1.9856,1.9864,1.9798,1.9867,1.9867,1.9867,1.9867,1.9867,1.9261,1.9294,1.9341,1.939,1.9425,1.9464,1.9499,1.9532,1.9576,1.9634,1.9651,1.9706,1.9753,1.9827,1.9857,1.9901,1.9899,1.9912,1.9915,1.9918,1.9918,1.9849,1.9911,1.9911,1.9911,1.9911,1.9911,0,1.931,1.9342,1.9387,1.9445,1.9484,1.9492,1.9539,1.9571,1.9619,1.9662,1.9705,1.9766,1.9817,1.9859,1.9912,1.9939,1.9946,1.9952,1.995,1.9957,1.9917,1.9904,1.9945,1.9945,1.9945,1.9945,1.9945,1.9945,1.934,1.9396,1.9417,1.949,1.9522,1.9576,1.9602,1.9638,1.9672,1.9739,1.9781,1.9809,1.9852,1.9908,1.9955,1.9966,1.9985,1.9989,2.0001,1.9963,1.9959,1.9956,1.9944,1.9992,1.9993,2.0038,2.0038,2.0038]},{"header":{"parameterUnit":"m.s-1","parameterCategory":1,"la1":30.2991,"la2":30.254,"lo1":-89.0895,"lo2":-89.0444,"dy":0.0017,"dx":0.0017,"nx":28,"ny":28,"refTime":"2025-04-14T21:00:00:Z","depth":0,"parameterNumber":3,"parameterNumberName":"V-component_of_WINDS"},"data":[0,0,0,0,0,0,0,0,0,0,0,0,0,0,0,0,0,0,0,0,0,0,0,0,0,0,0,0,0,0,0,0,0,0,0,0,0,0,0,0,0,0,0,0,0,0,0,0,0,0,0,0,0,0,0,0,0,0,5.2905,5.2905,0,5.2928,5.2929,5.2929,5.2924,5.2924,5.2923,5.2923,5.2943,5.2944,5.2945,0,0,0,0,0,0,0,0,0,0,0,0,0,5.2853,5.2854,5.2905,5.2905,5.2906,5.2928,5.2929,5.2929,5.2924,5.2924,5.2923,5.2923,5.2943,5.2944,5.2945,0,0,0,0,0,0,0,0,0,0,0,0,0,5.2876,5.2855,5.2905,5.2906,5.2907,5.2928,5.2929,5.2929,5.2924,5.2924,5.2923,5.2923,5.2942,5.2944,5.2945,5.2966,0,0,5.2949,5.295,0,0,0,0,0,0,0,0,5.2875,5.2878,5.2906,5.2906,5.2907,5.2923,5.2918,5.2941,5.2925,5.2917,5.2923,5.2922,5.2937,5.2938,5.2944,5.2967,5.2968,5.2949,5.295,5.2951,5.2951,0,0,0,0,0,0,0,5.2873,5.2877,5.2914,5.2906,5.2907,5.2905,5.2907,5.2922,5.293,5.2918,5.2918,5.2921,5.2937,5.2943,5.2944,5.2968,5.2949,5.295,5.2951,5.2952,5.301,5.3011,0,0,0,0,0,0,5.2872,5.2876,5.2913,5.2915,5.2889,5.2906,5.2909,5.2918,5.293,5.2931,5.2921,5.2921,5.2941,5.2943,5.2945,5.2971,5.2951,5.2952,5.2953,5.3009,5.301,5.3011,0,0,0,0,0,0,5.2871,5.2875,5.2912,5.2895,5.29,5.2908,5.2918,5.2919,5.2925,5.2932,5.2933,5.2926,5.294,5.2943,5.2961,5.2972,5.2953,5.2954,5.3008,5.301,5.3011,5.3023,0,0,0,0,0,0,5.2869,5.2875,5.2883,5.2896,5.2901,5.2929,5.2919,5.292,5.2928,5.2927,5.2937,5.2938,5.294,5.2959,5.2963,5.2973,5.2955,5.3008,5.3009,5.301,5.3021,5.3024,5.3026,0,0,0,0,0,5.2867,5.2885,5.2884,5.2888,5.2912,5.293,5.2933,5.2935,5.2929,5.2937,5.2942,5.2938,5.297,5.2961,5.2965,5.2976,5.3007,5.3009,5.301,5.302,5.3023,5.3026,0,0,0,0,0,0,5.2871,5.2886,5.2885,5.2907,5.2918,5.2929,5.2939,5.2938,5.2949,5.2948,5.2949,5.2952,5.297,5.2975,5.2965,5.2997,5.2987,5.299,5.2994,5.2997,5.2999,5.2998,5.2956,0,0,0,0,0,5.2875,5.289,5.2901,5.2919,5.2925,5.2931,5.2939,5.2941,5.2951,5.2954,5.2961,5.2969,5.2982,5.2989,5.3001,5.3022,5.3024,5.3032,5.3034,5.3036,5.3038,5.305,5.3054,5.3016,5.3016,5.3016,0,0,5.2882,5.2892,5.2901,5.2921,5.2929,5.2943,5.2935,5.295,5.296,5.2956,5.2974,5.2979,5.2989,5.3009,5.3018,5.3014,5.3049,5.3038,5.304,5.3041,5.3052,5.3056,5.3059,5.3017,5.3017,5.3017,0,0,5.2903,5.2912,5.2929,5.2938,5.2951,5.2956,5.296,5.2972,5.2975,5.2994,5.2992,5.3003,5.3024,5.3032,5.3038,5.3064,5.3061,5.3068,5.308,5.3092,5.3095,5.3098,5.3107,5.3111,5.307,5.307,5.307,0,5.291,5.2933,5.2937,5.2953,5.2962,5.2961,5.2978,5.2986,5.3001,5.3007,5.3002,5.3029,5.3035,5.3058,5.3064,5.3069,5.3074,5.3066,5.3095,5.3097,5.31,5.3109,5.3113,5.307,5.307,5.307,5.307,0,5.2941,5.2957,5.2968,5.2986,5.2996,5.3012,5.3018,5.3028,5.3029,5.3034,5.3053,5.3061,5.3075,5.308,5.308,5.3103,5.3099,5.3094,5.3084,5.3104,5.3113,5.3116,5.3071,5.3071,5.3071,5.3071,0,0,5.2963,5.2985,5.2989,5.2998,5.3013,5.3025,5.3041,5.3056,5.3064,5.3075,5.3089,5.3107,5.3103,5.3111,5.3112,5.3122,5.3143,5.3116,5.3116,5.3121,5.3169,5.3173,5.3177,5.3141,5.3142,5.3142,5.3168,0,5.2986,5.3016,5.3022,5.3048,5.3063,5.3063,5.3077,5.3088,5.3093,5.3106,5.3111,5.3124,5.3118,5.3122,5.3133,5.3138,5.3153,5.3136,5.3153,5.3154,5.3151,5.3181,5.3185,5.3209,5.3172,5.3172,5.3173,0,5.3015,5.303,5.3058,5.3074,5.308,5.3093,5.3108,5.312,5.3132,5.3135,5.3145,5.3145,5.3161,5.3151,5.3173,5.3162,5.317,5.3173,5.3174,5.3176,5.3164,5.3184,5.3217,5.322,5.3178,5.3177,5.3177,0,5.303,5.3056,5.3077,5.3084,5.3102,5.3111,5.3119,5.313,5.314,5.3152,5.3158,5.3172,5.3179,5.319,5.3193,5.3186,5.3216,5.3206,5.3219,5.3219,5.3225,5.3224,5.3259,5.3229,5.3229,5.3229,5.3229,0,5.3054,5.3072,5.3084,5.3097,5.3117,5.3122,5.3141,5.3148,5.3159,5.3172,5.3173,5.3185,5.3189,5.3202,5.3205,5.3224,5.3227,5.3229,5.323,5.323,5.3229,5.3234,5.3233,5.323,5.323,5.3229,5.3229,0,5.3073,5.3082,5.3105,5.3121,5.3126,5.314,5.3153,5.3165,5.3171,5.3188,5.3192,5.3201,5.3216,5.3221,5.3239,5.3241,5.3263,5.3262,5.326,5.326,5.3273,5.3271,5.3312,5.3318,5.3283,5.3284,5.3284,0,5.3088,5.3102,5.3121,5.3131,5.314,5.3156,5.3166,5.3172,5.3183,5.3198,5.3209,5.3224,5.3237,5.3262,5.3269,5.3283,5.3282,5.3296,5.3284,5.3284,5.3283,5.3283,5.3284,5.3298,5.3298,5.3298,5.3299,0,5.3115,5.3119,5.3135,5.3153,5.3166,5.3179,5.3192,5.32,5.3208,5.322,5.3237,5.3247,5.3267,5.3283,5.3297,5.3304,5.3303,5.3302,5.3306,5.3306,5.3304,5.3306,5.3266,5.3301,5.3301,5.3301,5.3301,5.3301,5.3132,5.3146,5.3161,5.3179,5.319,5.3203,5.3216,5.3225,5.324,5.3258,5.326,5.3278,5.329,5.331,5.3318,5.3331,5.3327,5.3333,5.3334,5.3335,5.3337,5.3302,5.3334,5.3334,5.3334,5.3334,5.3334,0,5.3159,5.317,5.3187,5.3207,5.3221,5.3221,5.3235,5.3247,5.3264,5.3276,5.329,5.331,5.3325,5.3334,5.335,5.3359,5.3359,5.3363,5.3362,5.3364,5.3339,5.3335,5.3363,5.3363,5.3363,5.3363,5.3363,5.3363,5.3175,5.3197,5.3204,5.3232,5.3242,5.3262,5.3271,5.3282,5.3293,5.3316,5.3329,5.3336,5.3347,5.3364,5.3378,5.338,5.3386,5.339,5.3392,5.3369,5.3366,5.3363,5.3359,5.3391,5.3391,5.3416,5.3416,5.3416]}]]